Stevensville, MD

6:22 PM EDT on October 18, 2017 (GMT -0400)
Stevensville

Weather History for KW29 - July, 2013

Change the Weather History Date:

Thursday, July 11, 2013

  Actual Average (KESN) Record (KESN)
Temperature  
Mean Temperature 78 °F -  
Max Temperature 82 °F 88 °F 95 °F (1966)
Min Temperature 73 °F 68 °F 56 °F (1953)
Cooling Degree Days 12    
Growing Degree Days 28 (Base 50)    
Moisture  
Dew Point 70 °F    
Average Humidity 79    
Maximum Humidity 100    
Minimum Humidity 54    
Precipitation  
Precipitation 0.00 in - - ()
Sea Level Pressure  
Sea Level Pressure 29.90 in    
Wind  
Wind Speed 6 mph (WSW)    
Max Wind Speed 12 mph    
Max Gust Speed 20 mph    
Visibility 10 miles    
Events Rain    
Averages and records for this station are not official NWS values.
T = Trace of Precipitation, MM = Missing Value Source: NWS Daily Summary

Daily Weather History Graph

Daily Weather History Graph

Search for Another Location

Airport or City:

Trip Planner

Search our weather history database for the weather conditions in past years. The results will help you decide how hot, cold, wet, or windy it might be!

Date:

Astronomy

Jul. 11, 2013 Rise Set
Actual Time 5:49 AM EDT 8:32 PM EDT
Civil Twilight 5:17 AM EDT 9:03 PM EDT
Nautical Twilight 4:38 AM EDT 9:42 PM EDT
Astronomical Twilight 3:54 AM EDT 10:26 PM EDT
Moon 9:03 AM EDT (7/11) 10:13 PM EDT (7/11)
Length of Visible Light 15h 45m
Length of Day
14h 42m
Waxing Crescent, 10% of the Moon is Illuminated
Jul 11
Waxing Crescent
Jul 15
First Quarter
Jul 22
Full
Jul 29
Last Quarter
Aug 6
New

Hourly Weather History & Observations

Time (EDT) Temp. Heat Index Dew Point Humidity Pressure Visibility Wind Dir Wind Speed Gust Speed Precip Events Conditions
12:12 AM 75.2 °F - 71.6 °F 89% 29.88 in 10.0 mi SSW 8.1 mph - N/A   Clear
12:32 AM 77.0 °F - 71.6 °F 83% 29.88 in 10.0 mi SSW 8.1 mph - N/A   Clear
12:52 AM 77.0 °F - 71.6 °F 83% 29.89 in 10.0 mi SW 11.5 mph 16.1 mph N/A   Clear
1:12 AM 77.0 °F - 71.6 °F 83% 29.89 in 10.0 mi SW 10.4 mph 19.6 mph N/A   Scattered Clouds
1:32 AM 77.0 °F - 71.6 °F 83% 29.89 in 10.0 mi SW 11.5 mph 16.1 mph N/A   Scattered Clouds
1:52 AM 77.0 °F - 71.6 °F 83% 29.88 in 10.0 mi SW 10.4 mph 16.1 mph N/A   Clear
2:12 AM 75.2 °F - 71.6 °F 89% 29.87 in 10.0 mi WSW 8.1 mph - N/A   Clear
2:32 AM 75.2 °F - 71.6 °F 89% 29.87 in 10.0 mi SW 6.9 mph - N/A   Clear
2:52 AM 75.2 °F - 71.6 °F 89% 29.86 in 10.0 mi SSW 8.1 mph - N/A   Clear
3:12 AM 75.2 °F - 71.6 °F 89% 29.86 in 10.0 mi South 10.4 mph - N/A   Clear
3:32 AM 73.4 °F - 71.6 °F 94% 29.85 in 10.0 mi South 8.1 mph - N/A   Clear
3:52 AM 75.2 °F - 71.6 °F 89% 29.85 in 10.0 mi South 6.9 mph - N/A   Clear
4:13 AM 75.2 °F - 71.6 °F 89% 29.85 in 10.0 mi SW 4.6 mph - N/A   Clear
4:33 AM 75.2 °F - 71.6 °F 89% 29.86 in 10.0 mi SW 10.4 mph - N/A   Scattered Clouds
4:53 AM 73.4 °F - 71.6 °F 94% 29.87 in 10.0 mi SW 6.9 mph - N/A   Scattered Clouds
5:13 AM 73.4 °F - 71.6 °F 94% 29.87 in 10.0 mi SSW 6.9 mph 16.1 mph N/A   Mostly Cloudy
5:33 AM 73.4 °F - 71.6 °F 94% 29.88 in 10.0 mi SSW 9.2 mph - N/A   Overcast
5:53 AM 73.4 °F - 71.6 °F 94% 29.89 in 10.0 mi SW 5.8 mph - N/A   Overcast
6:13 AM 73.4 °F - 71.6 °F 94% 29.89 in 10.0 mi SSW 6.9 mph - N/A   Overcast
6:33 AM 73.4 °F - 71.6 °F 94% 29.90 in 10.0 mi SW 5.8 mph - N/A   Overcast
6:53 AM 73.4 °F - 71.6 °F 94% 29.91 in 10.0 mi WSW 5.8 mph - N/A   Overcast
7:13 AM 73.4 °F - 71.6 °F 94% 29.91 in 10.0 mi WSW 6.9 mph - N/A   Mostly Cloudy
7:33 AM 73.4 °F - 73.4 °F 100% 29.92 in 10.0 mi SW 5.8 mph - N/A Rain Light Rain
7:53 AM 73.4 °F - 71.6 °F 94% 29.91 in 7.0 mi South 3.5 mph - N/A Rain Rain
8:13 AM 73.4 °F - 71.6 °F 94% 29.91 in 10.0 mi Calm Calm - N/A   Mostly Cloudy
8:33 AM 73.4 °F - 71.6 °F 94% 29.91 in 10.0 mi Calm Calm - N/A   Clear
8:53 AM 73.4 °F - 71.6 °F 94% 29.91 in 10.0 mi SSW 3.5 mph - N/A   Scattered Clouds
9:13 AM 75.2 °F - 71.6 °F 89% 29.92 in 10.0 mi WSW 4.6 mph - N/A   Mostly Cloudy
9:33 AM 75.2 °F - 73.4 °F 94% 29.92 in 10.0 mi WSW 3.5 mph - N/A   Mostly Cloudy
9:53 AM 75.2 °F - 73.4 °F 94% 29.92 in 10.0 mi West 5.8 mph - N/A   Overcast
10:13 AM 75.2 °F - 73.4 °F 94% 29.91 in 10.0 mi West 3.5 mph - N/A   Mostly Cloudy
10:33 AM 77.0 °F - 71.6 °F 83% 29.91 in 10.0 mi WNW 6.9 mph - N/A   Mostly Cloudy
10:53 AM 77.0 °F - 71.6 °F 83% 29.91 in 10.0 mi NW 4.6 mph - N/A   Mostly Cloudy
11:13 AM 77.0 °F - 71.6 °F 83% 29.91 in 10.0 mi WNW 6.9 mph - N/A   Scattered Clouds
11:33 AM 77.0 °F - 71.6 °F 83% 29.92 in 10.0 mi NW 8.1 mph - N/A   Scattered Clouds
11:53 AM 77.0 °F - 71.6 °F 83% 29.92 in 10.0 mi NW 5.8 mph - N/A   Scattered Clouds
12:14 PM 77.0 °F - 71.6 °F 83% 29.92 in 10.0 mi NW 5.8 mph - N/A   Scattered Clouds
12:34 PM 77.0 °F - 68.0 °F 74% 29.92 in 10.0 mi North 6.9 mph - N/A   Mostly Cloudy
12:54 PM 78.8 °F - 68.0 °F 69% 29.92 in 10.0 mi North 8.1 mph - N/A   Scattered Clouds
1:14 PM 78.8 °F - 69.8 °F 74% 29.92 in 10.0 mi North 6.9 mph - N/A   Clear
1:34 PM 78.8 °F - 68.0 °F 69% 29.91 in 10.0 mi NNE 4.6 mph - N/A   Clear
1:54 PM 80.6 °F 83.2 °F 68.0 °F 65% 29.91 in 10.0 mi NNW 8.1 mph - N/A   Clear
2:14 PM 78.8 °F - 68.0 °F 69% 29.91 in 10.0 mi NNW 6.9 mph - N/A   Clear
2:34 PM 80.6 °F 83.2 °F 68.0 °F 65% 29.90 in 10.0 mi North 5.8 mph - N/A   Clear
2:54 PM 78.8 °F - 68.0 °F 69% 29.90 in 10.0 mi NNW 3.5 mph - N/A   Clear
3:14 PM 80.6 °F 82.7 °F 66.2 °F 61% 29.90 in 10.0 mi NW 3.5 mph - N/A   Clear
3:34 PM 80.6 °F 83.2 °F 68.0 °F 65% 29.89 in 10.0 mi NNW 4.6 mph - N/A   Clear
3:54 PM 80.6 °F 82.7 °F 66.2 °F 61% 29.89 in 10.0 mi NW 4.6 mph - N/A   Clear
4:14 PM 80.6 °F 83.2 °F 68.0 °F 65% 29.89 in 10.0 mi Calm Calm - N/A   Clear
4:34 PM 80.6 °F 82.7 °F 66.2 °F 61% 29.88 in 10.0 mi NNE 3.5 mph - N/A   Clear
4:54 PM 82.4 °F 84.6 °F 66.2 °F 58% 29.89 in 10.0 mi Calm Calm - N/A   Clear
5:14 PM 82.4 °F 84.6 °F 66.2 °F 58% 29.89 in 10.0 mi Calm Calm - N/A   Clear
5:34 PM 82.4 °F 84.6 °F 66.2 °F 58% 29.89 in 10.0 mi ENE 3.5 mph - N/A   Clear
5:54 PM 80.6 °F 82.3 °F 64.4 °F 58% 29.88 in 10.0 mi NE 3.5 mph - N/A   Clear
6:14 PM 82.4 °F 83.9 °F 64.4 °F 54% 29.89 in 10.0 mi Calm Calm - N/A   Clear
6:34 PM 80.6 °F 82.3 °F 64.4 °F 58% 29.89 in 10.0 mi Calm Calm - N/A   Clear
6:54 PM 80.6 °F 82.3 °F 64.4 °F 58% 29.90 in 10.0 mi Calm Calm - N/A   Clear
7:14 PM 80.6 °F 82.7 °F 66.2 °F 61% 29.90 in 10.0 mi SE 4.6 mph - N/A   Clear
7:34 PM 80.6 °F 83.2 °F 68.0 °F 65% 29.90 in 10.0 mi SE 4.6 mph - N/A   Clear
7:54 PM 80.6 °F 83.2 °F 68.0 °F 65% 29.91 in 10.0 mi Calm Calm - N/A   Clear
8:14 PM 80.6 °F 83.2 °F 68.0 °F 65% 29.90 in 10.0 mi Calm Calm - N/A   Clear
8:34 PM 78.8 °F - 69.8 °F 74% 29.91 in 10.0 mi Calm Calm - N/A   Clear
8:54 PM 77.0 °F - 69.8 °F 78% 29.91 in 10.0 mi Calm Calm - N/A   Clear
9:15 PM 77.0 °F - 69.8 °F 78% 29.90 in 10.0 mi Calm Calm - N/A   Clear
9:35 PM 77.0 °F - 69.8 °F 78% 29.91 in 10.0 mi Calm Calm - N/A   Clear
9:55 PM 77.0 °F - 69.8 °F 78% 29.91 in 10.0 mi Calm Calm - N/A   Clear
10:15 PM 75.2 °F - 71.6 °F 89% 29.91 in 10.0 mi Calm Calm - N/A   Scattered Clouds
10:35 PM 77.0 °F - 69.8 °F 78% 29.91 in 10.0 mi Calm Calm - N/A   Scattered Clouds
10:55 PM 77.0 °F - 69.8 °F 78% 29.90 in 10.0 mi Calm Calm - N/A   Scattered Clouds
11:15 PM 77.0 °F - 69.8 °F 78% 29.90 in 10.0 mi Calm Calm - N/A   Scattered Clouds
11:35 PM 77.0 °F - 69.8 °F 78% 29.90 in 10.0 mi Calm Calm - N/A   Clear
11:55 PM 77.0 °F - 69.8 °F 78% 29.91 in 10.0 mi Calm Calm - N/A   Clear